ONEWEB-0282, 49000

Orbit data source: Space-Track

ONEWEB-0282, 49000 is a payload satellite owned by One Web (NAA) (UK) in LEO that was launched on Thu, 01 Jul 2021 UTC via a SOYUZ-2-1B launch vehicle from the Vostochny Cosmodrome (VOSTO). Payload-class satellites include a variety of spacecraft equipped with specific instruments for various scientific and technological missions. These include communications satellites like Starlink; space stations such as the ISS; scientific satellites like the Hubble; Earth observation satellites from companies like Planet Labs, Umbra, and HawkEye 360; GPS; miniature CubeSats for education and research; and military/defense satellites.

Loading next visibility...
Identifier
49000, 2021-060AK
Orbit
LEO
Country
Flag of UKUK
Related business
Manufacturer
One Web
Mission
Operational Commercial Communications
Bus & Motor
ARROW, Unknown motor
Mass
148 kg wet, ~140 kg dry
Launch date (UTC)
2021-07-01 (4 years ago)
Launch vehicle
SOYUZ-2-1B
Launch site
Vostochny Cosmodrome (VOSTO)
Object type
Payload
Rocket body
Debris
Shape & HBR
Trap Box + 2 Pan, 6.7 m
Radar Cross Section
3.464 m², Large (>1 m²)

Expand to show TLE details & history
Last TLE update: 10 hours ago

TLE from 10 hours ago
0 ONEWEB-0282
1 49000U 21060AK  25349.79175647 -.00000030  00000-0 -11236-3 0  9992
2 49000  87.9046 265.2988 0001792  69.4043 290.7280 13.16596853215478
Epoch: 2025-12-15T19:00Z
TLE epoch observation values (Epoch: 2025-12-15T19:00:07.759Z)
Latitude
-0°
Longitude
-104.41878°
Altitude
1,200.163 km
Speed
7.254 km/s
True Right ascension
17h 41m 11s
True Declination
0° 00' 00"
Sunlit
Object was in daylight at epoch
Visualization orbit readout
Latitude
Unknown
Longitude
Unknown
Altitude
Unknown
Speed
Unknown
Apparent Right ascension
Unknown
Apparent Declination
Unknown
Sunlit
N/A
Visualization observer readout
Local Sidereal Time
03:10:44
Azimuth
Unknown
Elevation
Unknown
Doppler factor
Unknown
Orbital elements
Apogee altitude
1,196.214 km
Perigee altitude
1,193.5 km
Semi-major axis
7,572.994 km
Eccentricity
0.00018
Inclination
87.9046°
RAAN
265.2988°
Arg. of periapsis
69.4043°
True anomaly
290.70879°
Mean anomaly
290.728°
Eccentric anomaly
290.7184°
Mean motion
3.29338 °/min
Orbital period
109.31 mins
BSTAR
-0.00011236
Loading maneuver chart data...
Computing Atmospheric mass density...
Loading historical data...
Loading historical data...
Loading historical data...
Loading historical data...
Loading historical data...
Loading historical data...
Loading historical data...

Documentation

Showing up to 5 results
|